FW1018 Weather Reports


time (UTC)temp
F
wind
direction
speed
knots
gust
knots
rain 1hr
in
rain 24hr
in
rain mn
in
humidity
%
barometer
mb
20260504081540 49 227 0.0 0.9 0.00 0.00 0.00 78 999.5
20260504081040 49 227 0.0 0.9 0.00 0.00 0.00 78 999.6
20260504080540 49 227 0.0 0.9 0.00 0.00 0.00 77 999.6
20260504050537 58 227 1.7 1.7 0.00 0.00 0.00 62 1001.3
20260504045537 58 227 0.9 2.6 0.00 0.00 0.00 62 1001.3
20260504045037 58 227 0.9 2.6 0.00 0.00 0.00 62 1001.2
20260504044537 58 227 1.7 2.6 0.00 0.00 0.00 62 1001.2
20260504044037 58 227 1.7 2.6 0.00 0.00 0.00 62 1001.3
20260504043537 58 227 0.9 1.7 0.00 0.00 0.00 62 1001.3
20260504043037 58 227 0.9 1.7 0.00 0.00 0.00 62 1001.2
20260504042537 58 227 0.9 0.9 0.00 0.00 0.00 63 1001.3
20260504042037 58 227 0.0 0.9 0.00 0.00 0.00 63 1001.3
20260504041537 59 227 0.0 0.9 0.00 0.00 0.00 62 1001.3
20260504041037 59 228 0.9 1.7 0.00 0.00 0.00 62 1001.2
20260504040537 59 227 0.9 1.7 0.00 0.00 0.00 61 1001.2
20260504040037 60 227 1.7 2.6 0.00 0.00 0.00 61 1001.4
20260504034537 60 227 1.7 3.5 0.00 0.00 0.00 60 1001.0
20260504033537 61 227 2.6 3.5 0.00 0.00 0.00 59 1001.2
20260504033036 61 227 2.6 3.5 0.00 0.00 0.00 58 1001.2
20260504032536 61 227 2.6 4.3 0.00 0.00 0.00 58 1001.3
20260504032036 62 227 1.7 5.2 0.00 0.00 0.00 58 1001.3
20260504031036 62 227 2.6 4.3 0.00 0.00 0.00 57 1001.2
20260504030536 62 227 3.5 4.3 0.00 0.00 0.00 57 1001.2
20260504025536 62 227 3.5 4.3 0.00 0.00 0.00 57 1001.0
20260504025036 63 227 3.5 4.3 0.00 0.00 0.00 56 1001.1
20260504024535 63 227 3.5 4.3 0.00 0.00 0.00 56 1000.9
20260504023535 63 227 2.6 3.5 0.00 0.00 0.00 56 1000.9
20260504023035 63 227 2.6 3.5 0.00 0.00 0.00 56 1000.8
20260504022536 63 227 2.6 4.3 0.00 0.00 0.00 56 1000.8
20260504022035 63 227 3.5 4.3 0.00 0.00 0.00 56 1000.7
20260504021535 64 227 3.5 4.3 0.00 0.00 0.00 55 1000.7
20260504021035 64 227 2.6 4.3 0.00 0.00 0.00 55 1000.6
20260504020535 64 227 2.6 7.0 0.00 0.00 0.00 55 1000.5
20260504015535 65 227 3.5 6.1 0.00 0.00 0.00 54 1000.3
20260504014534 65 227 3.5 4.3 0.00 0.00 0.00 54 1000.3
20260504014034 65 227 3.5 4.3 0.00 0.00 0.00 54 1000.2
20260504013534 65 227 3.5 5.2 0.00 0.00 0.00 54 1000.2
20260504012535 65 227 3.5 5.2 0.00 0.00 0.00 53 1000.2
20260504012034 65 228 2.6 4.3 0.00 0.00 0.00 53 1000.1
20260504011535 66 227 2.6 4.3 0.00 0.00 0.00 53 1000.2
20260504011034 66 227 3.5 6.1 0.00 0.00 0.00 53 1000.3
20260504010534 66 227 3.5 6.1 0.00 0.00 0.00 52 1000.3
20260504010034 66 227 3.5 5.2 0.00 0.00 0.00 52 1000.2
20260504005534 67 227 2.6 6.1 0.00 0.00 0.00 52 1000.3
20260504005034 67 227 5.2 6.1 0.00 0.00 0.00 51 1000.3
20260504004534 67 227 4.3 6.1 0.00 0.00 0.00 51 1000.3
20260504003534 68 227 5.2 7.0 0.00 0.00 0.00 50 1000.4
20260504003034 68 227 3.5 7.0 0.00 0.00 0.00 49 1000.5
20260504002534 68 228 3.5 7.8 0.00 0.00 0.00 49 1000.5
20260504001534 69 227 4.3 7.8 0.00 0.00 0.00 47 1000.5
20260504000533 69 228 5.2 7.8 0.00 0.00 0.00 46 1000.3
20260504000034 70 228 5.2 7.8 0.00 0.00 0.00 46 1000.5
20260503235033 70 227 6.1 8.7 0.00 0.00 0.00 46 1000.5
20260503234533 70 228 3.5 7.0 0.00 0.00 0.00 45 1000.5
20260503233033 70 227 6.1 7.0 0.00 0.00 0.00 46 1000.5
20260503232533 70 227 5.2 7.0 0.00 0.00 0.00 46 1000.4
20260503231533 70 227 4.3 8.7 0.00 0.00 0.00 45 1000.4
20260503231033 70 227 6.1 8.7 0.00 0.00 0.00 44 1000.5
20260503230533 70 228 6.1 8.7 0.00 0.00 0.00 44 1000.4
20260503230033 70 227 6.1 10.4 0.00 0.00 0.00 44 1000.5
20260503225032 70 227 5.2 7.0 0.00 0.00 0.00 46 1000.5
20260503224033 70 227 3.5 9.6 0.00 0.00 0.00 45 1000.6
20260503222032 70 227 5.2 11.3 0.00 0.00 0.00 45 1000.8
20260503221532 70 228 7.0 11.3 0.00 0.00 0.00 45 1000.8
20260503220532 70 228 7.0 11.3 0.00 0.00 0.00 44 1000.8
20260503220032 70 229 10.4 12.2 0.00 0.00 0.00 44 1000.8
20260503215031 70 229 7.8 12.2 0.00 0.00 0.00 45 1000.7
20260503214532 70 229 3.5 11.3 0.00 0.00 0.00 48 1000.9
20260503214032 70 229 7.0 12.2 0.00 0.00 0.00 45 1000.8
20260503213531 69 229 5.2 12.2 0.00 0.00 0.00 47 1000.9
20260503213031 69 229 7.0 9.6 0.00 0.00 0.00 48 1000.9
20260503212531 69 229 6.1 13.9 0.00 0.00 0.00 47 1001.0
20260503211531 69 229 6.1 12.2 0.00 0.00 0.00 46 1001.1
20260503211031 69 229 5.2 12.2 0.00 0.00 0.00 47 1001.1
20260503210531 68 229 7.8 13.9 0.00 0.00 0.00 48 1001.2
20260503210031 68 229 9.6 13.9 0.00 0.00 0.00 46 1001.2
20260503205031 68 229 9.6 11.3 0.00 0.00 0.00 46 1001.3
20260503204531 68 229 7.0 11.3 0.00 0.00 0.00 46 1001.4
20260503204030 68 229 9.6 11.3 0.00 0.00 0.00 47 1001.5
20260503203531 68 229 5.2 14.8 0.00 0.00 0.00 48 1001.6
20260503203030 68 229 8.7 14.8 0.00 0.00 0.00 46 1001.8
20260503202030 68 230 9.6 13.0 0.00 0.00 0.00 48 1001.9
20260503201530 67 229 9.6 13.0 0.00 0.00 0.00 47 1001.9
20260503200030 67 229 5.2 14.8 0.00 0.00 0.00 48 1002.2
20260503195530 67 229 10.4 14.8 0.00 0.00 0.00 46 1002.2
20260503194530 67 229 12.2 13.9 0.00 0.00 0.00 47 1002.3
20260503194030 67 229 8.7 14.8 0.00 0.00 0.00 48 1002.4
20260503193530 67 229 8.7 14.8 0.00 0.00 0.00 47 1002.4
20260503193030 67 229 6.1 16.5 0.00 0.00 0.00 45 1002.5
20260503192530 66 229 7.0 16.5 0.00 0.00 0.00 49 1002.4
20260503192030 66 229 8.7 15.6 0.00 0.00 0.00 48 1002.5
20260503191529 66 229 12.2 15.6 0.00 0.00 0.00 46 1002.6
20260503190030 66 229 11.3 17.4 0.00 0.00 0.00 48 1003.0
20260503185529 66 229 8.7 17.4 0.00 0.00 0.00 49 1003.1
20260503185029 65 231 8.7 17.4 0.00 0.00 0.00 51 1003.2
20260503184529 64 231 9.6 17.4 0.00 0.00 0.00 49 1003.2
20260503184029 65 230 10.4 14.8 0.00 0.00 0.00 49 1003.2
20260503183529 65 231 10.4 14.8 0.00 0.00 0.00 52 1003.4
20260503183029 64 231 9.6 15.6 0.00 0.00 0.00 51 1003.5
20260503182029 63 232 8.7 19.1 0.00 0.00 0.00 48 1003.7
20260503181529 63 232 7.8 19.1 0.00 0.00 0.00 50 1003.9
20260503181029 63 232 12.2 17.4 0.00 0.00 0.00 47 1003.8
20260503180529 63 232 12.2 18.2 0.00 0.00 0.00 51 1004.1
20260503175528 63 232 12.2 15.6 0.00 0.00 0.00 49 1004.1
20260503175028 63 231 7.0 15.6 0.00 0.00 0.00 48 1004.1
20260503174528 63 233 13.9 15.6 0.00 0.00 0.00 48 1004.2
20260503173528 62 232 7.8 15.6 0.00 0.00 0.00 51 1004.3
20260503173028 62 232 11.3 14.8 0.00 0.00 0.00 51 1004.2
20260503172528 62 233 6.1 19.1 0.00 0.00 0.00 51 1004.3
20260503172028 62 233 8.7 19.1 0.00 0.00 0.00 52 1004.4
20260503171528 62 232 5.2 19.1 0.00 0.00 0.00 50 1004.6
20260503171028 62 231 5.2 19.1 0.00 0.00 0.00 53 1004.6
20260503170528 61 231 4.3 13.9 0.00 0.00 0.00 54 1004.6
20260503150526 48 226 1.7 7.8 0.00 0.00 0.00 75 1006.9
20260503131024 46 226 1.7 4.3 0.00 0.00 0.00 80 1008.7
20260503130524 46 226 2.6 3.5 0.00 0.00 0.00 79 1008.7
20260503110523 46 228 2.6 4.3 0.00 0.00 0.00 67 1008.1